#timestamp,LO_Frequency,Hit,StdDev 
1711425615.2,286047001.7,N
1711425635.0,286047000.2,N
1711425635.9,286047000.2,N
1711425655.8,286047002.6,N
1711425675.6,286047001.6,N
1711425695.4,286047004.1,N
1711425715.3,286047004.0,N
1711425735.1,286047001.3,N
1711425755.8,286047001.5,N
1711425775.7,286047001.4,N
1711425795.5,286047002.0,N
1711425815.4,286047002.1,N
1711425835.2,286047001.7,N
1711425855.0,286047001.4,N
1711425855.9,286047001.4,N
1711425875.8,286047001.7,N
1711425895.6,286047002.0,N
1711425915.5,286047002.0,N
1711425935.3,286047002.3,N
1711425955.1,286047001.6,N
1711425975.9,286047001.6,N
1711425995.7,286047001.8,N
1711426015.6,286047000.1,N
1711426065.4,286047001.6,E
1711426075.4,286047002.7,N
1711426095.2,286047000.7,P
1711426115.0,286047000.5,N
1711426115.9,286047000.5,N
1711426135.8,286047000.0,N
1711426155.6,286047000.4,N
1711426175.4,286047000.8,N
1711426195.3,286046998.6,N
1711426215.1,286047001.1,N
1711426235.9,286046998.3,N
1711426255.7,286046998.4,N
1711426275.6,286046998.9,N
1711426295.4,286046998.9,N
1711426315.2,286046998.8,N
1711426335.1,286046998.1,N
1711426336.0,286046998.1,N
1711426355.8,286046998.5,N
1711426375.7,286047002.6,N
1711426395.5,286046999.9,N
1711426415.3,286047000.4,N
1711426435.2,286047001.0,N
1711426455.0,286047000.7,N
1711426455.9,286047000.7,N
1711426475.8,286046999.9,N
1711426495.6,286047000.2,N
1711426515.4,286047000.1,N
1711426535.3,286047001.1,N
1711426555.1,286047001.1,N
1711426575.9,286047000.3,N
1711426595.7,286047001.0,N
1711426615.5,286047000.7,N
1711426635.4,286046998.1,N
1711426655.2,286047000.7,N
1711426675.1,286047000.1,N
1711426676.0,286047000.1,N
1711426695.8,286047001.0,N
1711426715.6,286047000.2,N
1711426735.5,286047000.0,N
1711426755.3,286047002.8,N
1711426775.1,286047002.3,N
1711426795.9,286047002.2,N
1711426815.7,286047002.2,N
1711426835.6,286047001.9,N
1711426855.4,286047001.8,N
1711426875.2,286047001.7,N
1711426895.1,286047004.1,Y
1711426896.0,286047004.1,P
1711426915.8,286047002.5,N
1711426935.7,286047000.1,N
1711426955.5,286047000.4,N
1711426975.3,286047002.8,N
1711426995.2,286047000.1,N
1711427015.0,286047000.5,N
1711427015.9,286047000.5,N
1711427035.7,286047000.7,N
1711427055.6,286047000.3,N
1711427075.4,286047002.6,N
1711427095.3,286047001.1,N
1711427115.1,286047001.0,N
1711427116.0,286047001.0,N
1711427135.8,286046998.2,N
1711427155.7,286047001.1,N
1711427175.5,286047000.9,N
1711427195.3,286046998.3,N
1711427215.2,286046998.4,N
1711427235.0,286046998.5,N
1711427235.9,286046998.5,N
1711427255.8,286046998.2,N
1711427275.6,286047001.1,N
1711427295.4,286046998.1,N
1711427315.3,286046998.1,N
1711427335.1,286046998.3,N
1711427355.9,286046999.6,N
1711427375.7,286046999.3,N
1711427395.5,286047000.8,N
1711427415.4,286047000.7,N
1711427435.2,286046998.9,N
1711427455.1,286047001.2,N
1711427456.0,286047001.2,N
1711427475.8,286046998.2,N
1711427495.6,286047000.0,N
1711427515.5,286047002.8,N
1711427535.3,286047001.6,N
1711427555.1,286047002.0,N
1711427575.9,286047001.6,N
1711427595.7,286046999.8,N
1711427615.6,286047000.2,N
1711427635.4,286046999.9,N
1711427655.2,286047000.4,N
1711427675.1,286047000.2,N
1711427676.0,286047000.2,N
1711427695.8,286047000.2,N
1711427715.7,286047000.1,N
1711427735.5,286046999.8,N
1711427755.3,286047002.1,N
1711427775.2,286047002.5,N
1711427795.9,286047002.0,N
1711427815.7,286047004.4,Y
1711427835.6,286047003.7,P
1711427855.4,286047004.1,N
1711427875.3,286047005.5,P
1711427895.1,286047003.7,N
1711427896.0,286047003.7,N
1711427915.8,286047003.2,N
1711427935.7,286047003.8,N
1711427955.5,286047003.6,N
1711427975.3,286047001.5,N
1711427995.2,286047001.6,N
1711428015.0,286047001.4,N
1711428015.9,286047001.4,N
1711428035.8,286047002.2,N
1711428055.6,286047004.0,N
1711428075.4,286047003.4,N
1711428095.3,286047003.3,N
1711428115.1,286047003.6,N
1711428135.8,286047004.0,Y
1711428155.7,286046998.2,P
1711428175.5,286046998.2,N
1711428195.4,286047001.0,N
1711428215.2,286047001.1,N
1711428235.0,286046998.8,N
1711428235.9,286046998.8,N
1711428255.8,286046999.0,N
1711428275.6,286046999.0,N
1711428295.5,286047000.9,N
1711428345.3,286046999.8,E
1711428355.2,286047000.2,N
1711428375.1,286047002.8,P
1711428376.0,286047002.8,N
1711428395.8,286047002.8,N
1711428415.7,286047000.7,N
1711428435.5,286047000.0,N
1711428455.3,286046998.1,N
1711428475.2,286046998.6,N
1711428495.0,286046998.4,N
1711428495.9,286046998.4,N
1711428515.8,286046999.4,N
1711428535.6,286046999.4,N
1711428555.4,286046999.4,N
1711428575.3,286047001.1,N
1711428595.1,286046999.3,N
1711428615.9,286046998.1,N
1711428635.7,286046998.1,N
1711428655.5,286046998.9,N
1711428675.4,286046998.1,N
1711428695.2,286046998.5,N
1711428715.0,286046998.3,N
1711428716.0,286046998.3,N
1711428735.8,286047000.7,N
1711428755.6,286046999.8,N
1711428775.5,286047001.5,N
1711428795.3,286047000.1,N
1711428815.1,286047000.4,N
1711428835.9,286047000.9,N
1711428855.7,286047000.4,N
1711428875.6,286047000.3,N
1711428895.4,286046998.4,N
1711428915.2,286046999.2,N
1711428935.1,286046998.9,N
1711428936.0,286046998.9,N
1711428955.8,286046998.5,N
1711428975.7,286046998.2,N
1711428995.5,286046998.6,N
1711429015.3,286046998.5,N
1711429035.2,286046998.1,N
1711429055.0,286047000.3,N
1711429055.9,286047000.3,N
1711429075.8,286047000.8,N
1711429095.6,286046999.8,N
1711429115.4,286047002.3,N
1711429135.3,286047002.1,N
1711429155.1,286047002.7,N
1711429175.8,286047001.2,N
1711429195.7,286046998.8,N
